Location: �chenoz-la-M�line
(47.6009°N, 6.1354°E)
Time: 15:33:21
(UTC+00:00)

Meteor 2-13 Rocket - Pass Details

Date: 27 January 2021
Orbit: 936 x 958 km, 82.5° (Epoch: 04 March)

Event Time Altitude Azimuth Distance (km) Brightness Sun altitude
Rises 04:12:08 0° 351° (N) 3,651 7.5 -29.6°
Reaches altitude 10° 04:14:40 10° 353° (N) 2,700 6.8 -29.2°
Maximum altitude 04:20:51 78° 79° (E) 981 4.5 -28.1°
Drops below altitude 10° 04:26:59 10° 167° (SSE) 2,673 6.9 -27.1°
Sets 04:29:28 0° 169° (SSE) 3,611 7.6 -26.7°
